Location: Kelshall
(52.0000°N, 0.0500°W)
Time: 13:48:41
(UTC+00:00)

ATLAS 2AS CENTAUR R/B - Pass Details

Date: 23 January 2021
Orbit: 947 x 1265 km, 63.7° (Epoch: 13 February)

Event Time Altitude Azimuth Distance (km) Brightness Sun altitude
Rises 17:45:25 0° 253° (WSW) 4,219 8.1 -11.1°
Reaches altitude 10° 17:48:23 10° 259° (W) 3,252 6.8 -11.5°
Maximum altitude 17:55:59 48° 333° (NNW) 1,581 3.7 -12.6°
Enters shadow 18:02:51 12° 45° (NE) 2,982 4.5 -13.7°
